STARLINK-11604, 63133

Orbit data source: Space-Track

STARLINK-11604, 63133 is a payload satellite owned by SpaceX/Seattle (US) in LEO that was launched on Mon, 03 Mar 2025 UTC via an FALCON 9 launch vehicle from the Air Force Eastern Test Range (AFETR). Payload-class satellites include a variety of spacecraft equipped with specific instruments for various scientific and technological missions. These include communications satellites like Starlink; space stations such as the ISS; scientific satellites like the Hubble; Earth observation satellites from companies like Planet Labs, Umbra, and HawkEye 360; GPS; miniature CubeSats for education and research; and military/defense satellites.

Loading next visibility...
Identifier
63133, 2025-043B
Orbit
LEO
Last TLE update
11 hours ago
Origin
Manufacturer
SpaceX/Seattle
Mission
Operational Commercial Communications
Bus & Motor
STARLINK V2M, Unknown motor
Mass
730 kg wet, ~700 kg dry
Launch date (UTC)
2025-03-03 (4 months ago)
Launch vehicle
FALCON 9
Launch site
Air Force Eastern Test Range (AFETR)
Object type
Payload
Rocket body
Debris
Shape & HBR
Box + 2 Pan, 29 m
Radar Cross Section
36.964 m², Large (>1 m²)

Expand to show TLE details & history

TLE from 11 hours ago
0 STARLINK-11604
1 63133U 25043B   25186.51695253  .00250586  00000-0  18948-2 0  9996
2 63133  42.9980 301.0019 0002522 196.9106 163.1678 15.70880391 20474
Epoch: 2025-07-05T12:24Z
TLE epoch observation values (Epoch: 2025-07-05T12:24:24.698Z)
Latitude
-0.00002°
Longitude
-168.85489°
Altitude
357.776 km
Speed
7.695 km/s
True Right ascension
20h 04m 00s
True Declination
0° 00' 00"
Sunlit
Object was in full shadow at epoch
Visualization orbit readout
Latitude
10.75705°
Longitude
-159.86708°
Altitude
356.424 km
Speed
7.697 km/s
Apparent Right ascension
21h 41m 32s
Apparent Declination
-14° 26' 49"
Sunlit
Object is in full shadow
Visualization observer readout
Local Sidereal Time
11:05:35
Azimuth
41.775° NE
Elevation
-58.586°
Doppler factor
1
Orbital elements
Apogee altitude
360.061 km
Perigee altitude
356.663 km
Semi-major axis
6,736.499 km
Eccentricity
0.00025
Inclination
42.998°
RAAN
301.0019°
Arg. of periapsis
196.9106°
True anomaly
Unknown
Mean anomaly
163.1678°
Eccentric anomaly
Unknown
Mean motion
3.92547 °/min
Orbital period
91.71 mins
BSTAR
0.0018948
Loading maneuver chart data...
Loading SW <> Apogee altitude chart data...
Loading historical data...
Loading historical data...
Loading historical data...
Loading historical data...
Loading historical data...
Loading historical data...
Loading historical data...

STARLINK-11604 Visibility forecast

Observer location: undefined°, undefined°

Span
Click to sort rows by Start time (UTC) header in descending order
Start Az.
Max El. time (UTC)
Max El. Az.
Max El.
End time (UTC)
End Az.
4 mins2025-07-06 13:09:16.769Z296.97° NW2025-07-06 13:10:16.769Z339.524° N34.992°2025-07-06 13:13:16.769Z69.802° E
4 mins2025-07-06 14:45:16.769Z299.754° NW2025-07-06 14:47:16.769Z57.266° ENE36.917°2025-07-06 14:49:16.769Z91.536° ESE
4 mins2025-07-06 16:21:16.769Z260.18° W2025-07-06 16:22:16.769Z231.131° WSW26.929°2025-07-06 16:25:16.769Z143.379° SSE
|